Change the Weather History Date:

Thursday, November 8, 2012

  Actual Average Record
Temperature  
Mean Temperature 43 °F 50 °F  
Max Temperature 53 °F 60 °F 79 °F (1999)
Min Temperature 33 °F 40 °F 15 °F (1991)
Degree Days  
Heating Degree Days 22 15  
Month to date heating degree days 177 113  
Since 1 July heating degree days 569 410  
Cooling Degree Days 0 0  
Month to date cooling degree days 0 0  
Year to date cooling degree days 1707 1386  
Moisture  
Dew Point 35 °F    
Average Humidity 78    
Maximum Humidity 96    
Minimum Humidity 59    
Precipitation  
Precipitation T in 0.11 in 0.69 in (2000)
Month to date precipitation 0.14 0.95  
Year to date precipitation 27.06 37.47  
Sea Level Pressure  
Sea Level Pressure 30.21 in    
Wind  
Wind Speed 3 mph (SSW)    
Max Wind Speed 10 mph    
Max Gust Speed 14 mph    
Visibility 3 miles    
Events Fog , Rain    
T = Trace of Precipitation, MM = Missing Value Source: NWS Daily Summary

Daily Weather History Graph

Daily Weather History Graph

Search for Another Location

Airport or City:

Trip Planner

Search our weather history database for the weather conditions in past years. The results will help you decide how hot, cold, wet, or windy it might be!

Date:

Astronomy

Nov. 08, 2012 Rise Set
Actual Time 6:25 AM CST 4:42 PM CST
Civil Twilight 5:57 AM CST 5:10 PM CST
Nautical Twilight 5:25 AM CST 5:42 PM CST
Astronomical Twilight 4:54 AM CST 6:13 PM CST
Moon 12:24 AM CST (11/8) 1:20 PM CST (11/8)
Length of Visible Light 11h 12m
Length of Day
10h 16m
Waning Crescent, 32% of the Moon is Illuminated
Nov 8
Waning Crescent
Nov 13
New
Nov 20
First Quarter
Nov 28
Full
Dec 6
Last Quarter

Hourly Weather History & Observations

Time (CST) Temp. Windchill Dew Point Humidity Pressure Visibility Wind Dir Wind Speed Gust Speed Precip Events Conditions
12:53 AM 37.9 °F - 34.0 °F 86% 30.20 in 3.0 mi Calm Calm - N/A   Clear
1:34 AM 35.6 °F - 33.8 °F 93% 30.19 in 2.5 mi Calm Calm - N/A   Clear
1:53 AM 34.0 °F 31.0 °F 32.0 °F 92% 30.20 in 2.5 mi WNW 3.5 mph - N/A   Partly Cloudy
1:57 AM 35.6 °F 32.8 °F 33.8 °F 93% 30.20 in 1.0 mi WNW 3.5 mph - N/A   Mist
2:01 AM 35.6 °F 32.8 °F 33.8 °F 93% 30.20 in 0.2 mi WNW 3.5 mph - N/A Fog Fog
2:14 AM 35.6 °F 31.7 °F 33.8 °F 93% 30.20 in 1.2 mi WNW 4.6 mph - N/A   Scattered Clouds
2:23 AM 35.6 °F 31.7 °F 33.8 °F 93% 30.20 in 2.0 mi WNW 4.6 mph - N/A   Scattered Clouds
2:31 AM 33.8 °F 29.6 °F 33.8 °F 100% 30.21 in 1.8 mi WNW 4.6 mph - N/A   Mostly Cloudy
2:45 AM 35.6 °F 32.8 °F 33.8 °F 93% 30.21 in 2.0 mi WNW 3.5 mph - N/A   Mostly Cloudy
2:53 AM 35.1 °F 32.2 °F 33.1 °F 92% 30.22 in 3.0 mi WNW 3.5 mph - N/A   Overcast
3:53 AM 37.9 °F - 36.0 °F 93% 30.22 in 3.0 mi Calm Calm - N/A   Overcast
4:09 AM 37.4 °F - 35.6 °F 93% 30.21 in 2.5 mi Calm Calm - N/A   Overcast
4:53 AM 34.0 °F - 32.0 °F 92% 30.23 in 3.0 mi Calm Calm - N/A   Scattered Clouds
5:43 AM 33.8 °F - 30.2 °F 87% 30.23 in 2.5 mi Calm Calm - N/A   Clear
5:53 AM 33.1 °F 30.0 °F 32.0 °F 96% 30.24 in 2.0 mi Variable 3.5 mph - N/A   Clear
6:22 AM 33.8 °F - 33.8 °F 100% 30.24 in 1.0 mi Calm Calm - N/A   Mostly Cloudy
6:53 AM 37.0 °F - 35.1 °F 93% 30.25 in 1.2 mi Calm Calm - N/A   Overcast
7:53 AM 37.9 °F - 36.0 °F 93% 30.27 in 1.2 mi Calm Calm - N/A   Overcast
8:53 AM 44.1 °F - 39.9 °F 85% 30.28 in 1.8 mi Calm Calm - N/A   Overcast
9:00 AM 42.8 °F - 39.2 °F 87% 30.27 in 2.0 mi Calm Calm - N/A   Overcast
9:53 AM 46.9 °F - 39.9 °F 77% 30.28 in 2.5 mi Calm Calm - N/A   Haze
10:11 AM 48.2 °F - 39.2 °F 71% 30.27 in 3.0 mi ESE 3.5 mph - 0.00 in Rain Light Rain
10:30 AM 48.2 °F - 37.4 °F 66% 30.27 in 5.0 mi South 4.6 mph - 0.00 in   Haze
10:53 AM 48.9 °F - 37.0 °F 64% 30.27 in 5.0 mi Variable 3.5 mph - 0.00 in   Haze
11:10 AM 48.2 °F - 37.4 °F 66% 30.26 in 5.0 mi Calm Calm - N/A   Haze
11:53 AM 48.9 °F - 37.0 °F 64% 30.25 in 4.0 mi Calm Calm - N/A   Haze
12:53 PM 50.0 °F - 37.0 °F 61% 30.22 in 5.0 mi SSE 4.6 mph - N/A   Haze
1:53 PM 51.1 °F - 37.0 °F 59% 30.21 in 4.0 mi South 4.6 mph - N/A   Haze
2:53 PM 52.0 °F - 37.0 °F 57% 30.19 in 6.0 mi Calm Calm - N/A   Haze
3:53 PM 52.0 °F - 37.0 °F 57% 30.18 in 6.0 mi SSE 9.2 mph - N/A   Haze
4:53 PM 45.0 °F 41.8 °F 37.0 °F 74% 30.18 in 5.0 mi SSE 5.8 mph - N/A   Haze
5:53 PM 42.1 °F 37.7 °F 36.0 °F 79% 30.19 in 4.0 mi SE 6.9 mph - N/A   Haze
6:53 PM 39.9 °F 35.8 °F 35.1 °F 83% 30.19 in 4.0 mi ESE 5.8 mph - N/A   Haze
7:53 PM 39.0 °F - 35.1 °F 86% 30.19 in 3.0 mi Calm Calm - N/A   Clear
8:53 PM 37.9 °F - 35.1 °F 89% 30.18 in 3.0 mi Calm Calm - N/A   Clear
9:01 PM 37.4 °F - 33.8 °F 87% 30.17 in 2.5 mi Calm Calm - N/A   Clear
9:53 PM 37.0 °F 33.3 °F 33.1 °F 86% 30.17 in 2.5 mi SE 4.6 mph - N/A   Clear
10:33 PM 35.6 °F - 33.8 °F 93% 30.16 in 3.0 mi Calm Calm - N/A   Clear
10:45 PM 35.6 °F 32.8 °F 33.8 °F 93% 30.16 in 2.5 mi South 3.5 mph - N/A   Clear
10:53 PM 35.1 °F - 32.0 °F 89% 30.16 in 2.5 mi Calm Calm - N/A   Clear
11:40 PM 37.4 °F 34.9 °F 33.8 °F 87% 30.16 in 3.0 mi South 3.5 mph - N/A   Clear
11:53 PM 37.0 °F 33.3 °F 33.1 °F 86% 30.17 in 3.0 mi SSE 4.6 mph - N/A   Clear